Content
SEND FEEDBACK

Daily
Averages
Monthly
Summary
United States of America

REDDING, CALIFORNIA


Home > North America > United States > California
Elevation: 535 feet     Latitude: 40 31N     Longitude: 122 18W

WEATHER
 
SELECT A DAY
Number of Records: 187,239;   Date Range: 1/1/95 - 8/12/14
 
SHARE

PRINT THIS DATA

[ ← Previous Day ]
WEATHER ALMANAC - AUGUST 28, 2013
[ Next Day → ]
[ °C ]   °F
Weather ElementAverageHighLow
Temperature77.2 °F91.9 °F (3:53 pm)57.9 °F (6:53 am)
Dewpoint44 °F50 °F (8:53 am)39 °F (8:53 pm)
Humidity33.7 %62 % (6:53 am)16 % (5:53 pm)
Barometer29.82 in29.86 in (9:53 am)29.77 in (1:53 am)
Wind Speed4.2 mph12.7 mph (4:53 pm)
Wind Gust17.3 mph (2:53 pm)
Weather ElementAverage
Visibility10 mi
Wind DirectionENE (63 °)

Weather ElementTotal
Precipitation---
Cooling Degree Days9.9 (Base 65)
Growing Degree Days24.9 (Base 50)
Averaged from 23 records on August 28, 2013
WEATHER CONDITIONS BREAKOUT
WIND DIRECTION BREAKOUT
WEATHER BY HOUR - AUGUST 28, 2013
[ °C ]   °F
Local TimeTemperatureDewpointHumidityBarometerVisibilityWind DirectionWind SpeedGust SpeedPrecipitationEventsConditions
1:53 AM68.0 °F43.0 °F40 %29.77 in10.0 miNorth (10°)3.5 mphClear
2:53 AM64.9 °F45.0 °F48 %29.78 in10.0 miCalmClear
3:53 AM64.0 °F46.0 °F52 %29.79 in10.0 miNorth (10°)3.5 mphClear
4:53 AM63.0 °F45.0 °F52 %29.80 in10.0 miCalmClear
5:53 AM60.1 °F45.0 °F57 %29.81 in10.0 miNNE (20°)3.5 mphClear
6:53 AM57.9 °F45.0 °F62 %29.83 in10.0 miCalmClear
7:53 AM64.0 °F46.0 °F52 %29.85 in10.0 miCalmClear
8:53 AM72.0 °F50.0 °F46 %29.85 in10.0 miCalmClear
9:53 AM75.0 °F48.0 °F38 %29.86 in10.0 miCalmClear
10:53 AM78.1 °F46.9 °F33 %29.86 in10.0 miCalmClear
11:53 AM82.9 °F46.0 °F27 %29.86 in10.0 miVariable3.5 mphClear
12:53 PM86.0 °F46.0 °F25 %29.85 in10.0 miSSE (160°)8.1 mphClear
1:53 PM88.0 °F44.1 °F22 %29.83 in10.0 miVariable4.6 mph16.1 mphClear
2:53 PM91.0 °F44.1 °F20 %29.81 in10.0 miSouth (170°)9.2 mph17.3 mphClear
3:53 PM91.9 °F41.0 °F17 %29.80 in10.0 miSouth (180°)10.4 mphClear
4:53 PM91.9 °F42.1 °F18 %29.79 in10.0 miSouth (170°)12.7 mphClear
5:53 PM91.9 °F39.9 °F16 %29.78 in10.0 miSouth (170°)9.2 mphClear
6:53 PM90.0 °F42.1 °F19 %29.78 in10.0 miSSE (160°)9.2 mphClear
7:53 PM84.9 °F44.1 °F24 %29.79 in10.0 miSouth (180°)6.9 mphClear
8:53 PM82.0 °F39.0 °F22 %29.80 in10.0 miSouth (180°)8.1 mphClear
9:53 PM81.0 °F39.9 °F23 %29.82 in10.0 miCalmClear
10:53 PM75.9 °F41.0 °F29 %29.83 in10.0 miCalmClear
11:53 PM72.0 °F42.1 °F34 %29.83 in10.0 miNE (40°)3.5 mphClear
Hourly data recorded from KRDD, located miles away from Redding, California







STORIES FROM OUR PARTNERS